Tracking 19796 objects as of 19-Jul-2019
HD Live streaming from Space Station
objects crossing your sky now

ZDPS 2B

Track ZDPS 2B now!
10-day predictions
ZDPS 2B is classified as:


NORAD ID: 40902
Int'l Code: 2015-049D
Perigee: 509.9 km
Apogee: 530.7 km
Inclination: 97.5 °
Period: 94.9 minutes
Semi major axis: 6891 km
RCS: Unknown
Launch date: September 19, 2015
Source: People's Republic of China (PRC)
Launch site: Taiyaun Space Center, China (TSC)
aabbcc
Your satellite tracking list
Your tracking list is empty




NASA's NSSDC Master Catalog

Two Line Element Set (TLE):
1 40902U 15049D   19200.50594407  .00000542  00000-0  30291-4 0  9990
2 40902  97.4535 203.3642 0015137  92.6324  59.1867 15.17576371211882
Source of the keplerian elements: AFSPC